User: anonymous   Login
Location: Unspecified
(0.0000°N, 0.0000°E)
Time: 23:48:52
(UTC+00:00)
Language:

Freja - Orbit

View from above orbital plane
View from above orbital plane
View from above satellite
View from above satellite

Ground track
Ground track

The orbit data is extracted from the following two-line orbital elements,

1 22161U 92064A   17348.94683461 -.00000040 +00000-0 +29033-4 0  9993
2 22161 062.9940 320.9607 0763839 334.3787 022.1147 13.30291286220480
Epoch (UTC): 14 December 2017 22:43:26
Eccentricity: 0.0763839
inclination: 62.9940°
perigee height: 571 km
apogee height: 1720 km
right ascension of ascending node: 320.9607°
argument of perigee: 334.3787°
revolutions per day: 13.30291286
mean anomaly at epoch: 22.1147°
orbit number at epoch: 22048

The dashed part of the orbit path shows where the satellite is in the earth's shadow,  

DLR